Location: Baia Mare
(47.6567°N, 23.5850°E)
Time: 12:45:16
(UTC+02:00)

ISS - Pass Details

Date: 22 January 2019
Orbit: 404 x 407 km, 51.6° (Epoch: 16 January)

Event Time Altitude Azimuth Distance (km) Brightness Sun altitude
Rises 18:50:55 0° 201° (SSW) 2,311 0.5 -16.6°
Reaches altitude 10° 18:53:28 10° 180° (S) 1,457 -0.9 -17.0°
Enters shadow 18:55:01 16° 152° (SSE) 1,150 -1.7 -17.3°
